Language selection

Weather shortcuts

Johnstone Strait: Past 24 Hour Conditions

 

La Perouse Bank - 46206

03:00 PM PDT 20 May 2024Buoy position: 48.83N 126.0W
Disclaimer

This table is a summary of hourly weather conditions for the past 24 hours.
Please note that these observations might not always be representative of weather conditions over their associated marine area.

Date / Time
(PDT)
Wind(knots) Wave height(m) Wave period(s) Pressure(kPa) Air tempC) Water tempC)
20 May 2024
15:00 WNW 13 gusts 16 1.53 18.2 102.6 11 10
14:00 NW 14 gusts 17 1.56 18.2 102.6 10 10
13:00 NW 15 gusts 18 1.68 6.7 102.6 10 10
12:00 NW 15 gusts 18 1.76 6.7 102.6 10 10
11:00 NW 14 gusts 17 1.85 6.5 102.6 10 10
10:00 NW 14 gusts 17 1.86 7.1 102.5 10 10
9:00 NW 15 gusts 17 1.97 6.9 102.5 10 10
8:00 NW 14 gusts 16 2.00 7.1 102.5 10 10
7:00 NW 16 gusts 18 2.00 7.7 102.5 10 10
6:00 NW 15 gusts 18 2.18 7.4 102.5 10 10
5:00 NW 17 gusts 22 1.97 8.0 102.5 10 10
4:00 NW 17 gusts 21 2.44 7.7 102.4 10 10
3:00 NW 18 gusts 23 2.31 8.0 102.4 10 10
2:00 NW 19 gusts 23 2.69 8.0 102.4 10 10
1:00 NW 19 gusts 24 2.26 7.7 102.4 10 10
0:00 NW 19 gusts 24 2.37 6.9 102.4 10 10
19 May 2024
23:00 NW 20 gusts 24 2.30 6.9 102.4 10 10
22:00 NW 19 gusts 24 2.02 6.9 102.5 11 10
21:00 NW 18 gusts 23 2.01 6.9 102.4 10 10
20:00 NW 19 gusts 23 1.92 6.9 102.5 11 10
19:00 NW 17 gusts 21 1.70 5.3 102.5 11 10
18:00 NW 17 gusts 22 1.72 8.0 102.6 11 10
17:00 NW 15 gusts 18 1.66 18.2 102.6 11 11
16:00 NW 13 gusts 16 1.63 8.0 102.6 11 11
15:00 NW 12 gusts 14 1.77 8.0 102.6 11 11

Zoom-in to make a selection

Map of Pacific - Georgia Basin marine weather areas Sentry Shoal - 46131 Halibut Bank - 46146 La Perouse Bank - 46206 Georgia Strait - 46303 English Bay – 46304 Discovery Island Esquimalt Harbour Kelp Reefs Malahat Race Rocks Lightstation Saturna Island Sheringham Point University of Victoria Victoria Gonzales Victoria Int'l Airport Ballenas Islands Campbell River Airport Comox Airport Entrance Island Fanny Island Nanaimo Airport Sisters Islets Estevan Point Port Alberni Tofino Airport Grief Point Howe Sound - Pam Rocks Powell River Airport Sechelt Squamish Airport Point Atkinson Sand Heads Lightstation Tsawwassen Ferry Terminal Vancouver Int'l Airport Vancouver Harbour West Vancouver
Legend:
buoy Buoy
land station Land Station

Pacific - Georgia Basin Area

Another Region

Date modified: